DELTA 1 DEB

Satellite information

Favourite Embed

Satellite Type and Status

DEBRISIN ORBIT

Key statistics

Satellite DELTA 1 DEB at a glance.

Uptime

18352

Days in orbit

Revolutions

≈ 13.4

Per day

Orbit

SSO

Sun Synchronous Orbit

Inclination

99.7

Latest

Satellite identification and parameters

Extended collection of information and parameters for DELTA 1 DEB.

Object identification

Identified? True

Debris? True

Object name: DELTA 1 DEB

International designator: 1975-052MX

Object number (NORAD): 48087

Object ID (CCSDS): 48087

Country: UNITED STATES OF AMERICA (US)

Current information (Y/N): Y

RCS size: SMALL

Orbital parameters

Period: 107.201 minutes

Inclination: 99.6962 deg

SMA: 7475.258 km

Apoapsis: 1139.353 km

Periapsis: 1054.893 km

RAAN: 88.5018 deg

Eccentricy: 0.00564934

Argument of periapsis: 117.9913 deg

Mean anomaly: 242.6949 deg

Mean motion: 13.43270555 rev/day

Mean motion (dot): 0.00000521 rev/day2

B* drag term: 0.00097520545 1/REarth

Two-line elements (TLE)

Creation date: Sept. 6, 2025, 2:09 a.m.

Reference frame: TEME

Reference center: EARTH

Epoch: Sept. 5, 2025, 7:22 p.m. UTC

TLE line 0: 0 DELTA 1 DEB

TLE line 1: 1 48087U 75052MX 25248.80730493 .00000521 00000-0 97521-3 0 9996

TLE line 2: 2 48087 99.6962 88.5018 0056493 117.9913 242.6949 13.43270555577402

Live tracking on map

Real-time ground track for satellite DELTA 1 DEB.

In-orbit conjunctions

A list of the most updated potential collisions computed for object DELTA 1 DEB.

Target Orbit TCA Probability of collision Miss distance Type
CZ-6A DEB LEO 2025-03-12 22:05:16 0.0001015409 107.0 (m) DEBRIS

Associated space launch

Experimental meteorological satellite

DELTA 1 DEB was lifted into orbit during the mission ‘Delta 2910 | Nimbus 6’, on board a Delta 2910 space rocket.

The launch took place on June 12, 1975, 8:12 a.m. from Space Launch Complex 2W.

For more information about the launch, click the button.

Launch to space Delta 2910 | Nimbus 6
Delta 2910 | Nimbus 6

Agency: N/A

Status: Launch Successful

Launch date: June 12, 1975, 8:12 a.m. UTC

Rocket: Delta 2910

Launch pad: Space Launch Complex 2W

Location: Vandenberg SFB, CA, USA

...

Latest news about this satellite

There are no fresh news available about this satellite. Check back as we update our databases every day.


Newsletter sign-up

Weekly statistics, charts and insights to help you stay on top of the space industry.